User: anonymous
Location: Oshawa
(43.9000°N, 78.8670°W)
Time: 02:12:42
(UTC-04:00)
Language:

Cosmos 1408 Rocket - Orbit

View from above orbital plane
View from above orbital plane
View from above satellite
View from above satellite

Ground track
Ground track

The orbit data is extracted from the following two-line orbital elements,

1 13553U 82092B   14113.85467378  .00000640  00000-0  74715-4 0  8803
2 13553 082.5710 225.4373 0020616 242.0677 240.7499 14.83495848706441
Epoch (UTC): 23 April 2014 20:30:43
Eccentricity: 0.0020616
inclination: 82.5710°
perigee height: 604 km
apogee height: 633 km
right ascension of ascending node: 225.4373°
argument of perigee: 242.0677°
revolutions per day: 14.83495848
mean anomaly at epoch: 240.7499°
orbit number at epoch: 70644

The dashed part of the orbit path shows where the satellite is in the earth's shadow,  

DLR